K5WRW-WX Weather Reports


Display with metric or nautical units.
time (UTC)temp
F
wind
direction
speed
MPH
gust
MPH
rain 1hr
in
rain 24hr
in
rain mn
in
humidity
%
barometer
mb
20260506192516 62 0 9.0 12.0 0.00 0.00 0.00 70 1012.6
20260506191517 61 23 8.0 12.0 0.00 0.00 0.00 71 1012.3
20260506190517 60 0 10.0 15.0 0.00 0.00 0.00 72 1012.3
20260506185517 59 0 8.0 14.0 0.00 0.00 0.00 74 1012.2
20260506184537 58 23 9.0 11.0 0.00 0.00 0.00 75 1012.5
20260506183517 57 0 7.0 9.0 0.00 0.00 0.00 75 1012.4
20260506182557 57 0 6.0 9.0 0.00 0.00 0.00 75 1012.4
20260506181517 56 23 9.0 16.0 0.00 0.00 0.00 76 1012.7
20260506180516 55 0 6.0 8.0 0.00 0.00 0.00 77 1012.8
20260506175516 55 23 8.0 14.0 0.00 0.00 0.00 78 1012.6
20260506174517 55 0 5.0 9.0 0.00 0.00 0.00 78 1013.0
20260506173516 55 23 9.0 13.0 0.00 0.00 0.00 78 1013.2
20260506172537 55 23 8.0 13.0 0.00 0.00 0.00 79 1013.5
20260506171516 54 68 7.0 9.0 0.00 0.00 0.00 79 1014.6
20260506170516 54 23 7.0 10.0 0.00 0.00 0.00 79 1014.2
20260506165516 54 0 8.0 11.0 0.00 0.00 0.00 79 1013.8
20260506164556 54 23 6.0 9.0 0.00 0.00 0.00 80 1014.3
20260506163516 54 338 3.0 6.0 0.00 0.00 0.00 80 1013.6
20260506162516 53 23 9.0 15.0 0.00 0.00 0.00 80 1013.8
20260506161516 53 0 6.0 9.0 0.00 0.00 0.00 80 1014.1
20260506160516 54 338 6.0 10.0 0.00 0.00 0.00 80 1014.3
20260506155516 54 68 7.0 9.0 0.00 0.00 0.00 79 1014.1
20260506154516 54 68 7.0 10.0 0.00 0.00 0.00 78 1013.9
20260506153516 54 338 7.0 10.0 0.00 0.00 0.00 79 1013.3
20260506152516 54 23 11.0 14.0 0.00 0.00 0.00 79 1013.5
20260506151516 53 23 11.0 15.0 0.00 0.00 0.00 79 1013.6
20260506150516 53 0 7.0 10.0 0.00 0.00 0.00 80 1013.7
20260506145516 53 23 8.0 11.0 0.00 0.00 0.00 80 1013.5
20260506144517 53 0 7.0 13.0 0.00 0.00 0.00 80 1013.9
20260506143516 53 45 5.0 8.0 0.00 0.00 0.00 81 1013.6
20260506142516 53 0 9.0 13.0 0.00 0.00 0.00 81 1013.0
20260506141536 53 23 10.0 16.0 0.00 0.00 0.00 81 1012.5
20260506140516 52 0 7.0 12.0 0.00 0.00 0.00 82 1012.3
20260506135516 52 23 9.0 13.0 0.00 0.00 0.00 82 1012.8
20260506134516 52 23 11.0 16.0 0.00 0.00 0.00 82 1012.6
20260506133516 52 0 8.0 12.0 0.00 0.00 0.00 83 1012.4
20260506132516 52 0 5.0 7.0 0.00 0.00 0.00 84 1011.9
20260506131516 52 0 4.0 7.0 0.00 0.00 0.00 85 1012.2
20260506130516 51 0 8.0 10.0 0.00 0.00 0.00 85 1012.0
20260506125516 51 23 7.0 12.0 0.00 0.00 0.00 86 1012.1
20260506124517 51 23 6.0 9.0 0.00 0.00 0.00 86 1012.1
20260506123516 51 23 6.0 9.0 0.00 0.00 0.00 86 1012.1
20260506122516 51 338 8.0 10.0 0.00 0.00 0.00 87 1012.0
20260506121515 50 0 10.0 13.0 0.00 0.00 0.00 88 1011.7
20260506120516 50 0 8.0 12.0 0.00 0.00 0.00 88 1011.5
20260506115516 50 23 10.0 15.0 0.00 0.00 0.00 88 1011.4
20260506114517 50 0 4.0 7.0 0.00 0.00 0.00 88 1011.2
20260506113516 50 338 9.0 14.0 0.00 0.00 0.00 87 1011.2
20260506112515 50 338 8.0 11.0 0.00 0.00 0.00 87 1010.9
20260506111516 51 338 10.0 14.0 0.00 0.00 0.00 86 1011.0
20260506110515 51 0 4.0 8.0 0.00 0.00 0.00 86 1011.0
20260506105515 51 338 6.0 10.0 0.00 0.00 0.00 85 1011.1
20260506104515 51 338 7.0 12.0 0.00 0.00 0.00 84 1010.8
20260506103515 52 0 9.0 16.0 0.00 0.00 0.00 84 1010.8
20260506102516 52 23 7.0 9.0 0.00 0.00 0.00 83 1010.7
20260506101516 52 338 8.0 11.0 0.00 0.00 0.00 82 1010.7
20260506100515 52 0 8.0 11.0 0.00 0.00 0.00 82 1010.3
20260506095515 52 0 9.0 13.0 0.00 0.00 0.00 81 1010.1
20260506094555 52 23 8.0 14.0 0.00 0.00 0.00 81 1009.9
20260506093515 52 0 10.0 15.0 0.00 0.00 0.00 80 1009.7
20260506092515 53 23 8.0 13.0 0.00 0.00 0.00 80 1009.5
20260506091515 53 0 8.0 11.0 0.00 0.00 0.00 80 1009.6
20260506090515 53 23 6.0 9.0 0.00 0.00 0.00 80 1009.7
20260506085537 53 338 5.0 7.0 0.00 0.00 0.00 79 1009.8
20260506084517 53 338 5.0 10.0 0.00 0.00 0.00 79 1009.7
20260506083517 53 0 8.0 13.0 0.00 0.00 0.00 79 1009.2
20260506082517 53 338 7.0 12.0 0.00 0.00 0.00 78 1009.1
20260506081517 53 23 7.0 10.0 0.00 0.00 0.00 78 1009.2
20260506080517 53 0 6.0 10.0 0.00 0.00 0.00 78 1009.4
20260506073517 54 0 9.0 12.0 0.00 0.00 0.00 78 1008.7
20260506072517 54 23 6.0 9.0 0.00 0.00 0.00 77 1008.6
20260506071517 54 45 6.0 10.0 0.00 0.00 0.00 77 1008.9
20260506070517 54 0 6.0 9.0 0.00 0.00 0.00 77 1008.8
20260506061517 54 23 7.0 13.0 0.00 0.00 0.00 76 1009.0
20260506060537 55 0 8.0 13.0 0.00 0.00 0.00 76 1009.1
20260506050557 55 0 7.0 10.0 0.00 0.00 0.00 78 1008.9
20260506044516 56 0 8.0 14.0 0.00 0.00 0.00 78 1008.8
20260506043516 56 0 9.0 12.0 0.00 0.00 0.00 78 1008.7
20260506042536 56 23 5.0 9.0 0.00 0.00 0.00 78 1008.8
20260506041536 56 0 7.0 11.0 0.00 0.00 0.00 78 1008.9
20260506040516 57 23 8.0 10.0 0.00 0.00 0.00 79 1008.6
20260506035516 57 338 8.0 13.0 0.00 0.00 0.00 79 1008.6
20260506034537 57 0 8.0 11.0 0.00 0.00 0.00 79 1008.6
20260506033516 57 0 8.0 13.0 0.00 0.00 0.00 79 1008.4
20260506032516 58 0 6.0 10.0 0.00 0.00 0.00 79 1008.3
20260506031516 58 0 9.0 13.0 0.00 0.00 0.00 79 1008.2
20260506030516 58 23 7.0 11.0 0.00 0.00 0.00 79 1007.8
20260506025536 59 0 9.0 11.0 0.00 0.00 0.00 80 1007.7
20260506024516 60 0 8.0 13.0 0.00 0.00 0.00 80 1007.2
20260506023536 60 23 8.0 13.0 0.00 0.00 0.00 80 1006.7
20260506022516 60 0 7.0 12.0 0.00 0.00 0.00 80 1006.5
20260506021516 61 338 6.0 9.0 0.00 0.00 0.00 80 1006.2
20260506020516 61 0 6.0 9.0 0.00 0.00 0.00 80 1006.2
20260506015516 62 315 7.0 10.0 0.00 0.00 0.00 81 1006.2
20260506014516 62 23 4.0 11.0 0.00 0.00 0.00 81 1005.7
20260506013536 62 338 8.0 13.0 0.00 0.00 0.00 80 1005.9
20260506012516 63 315 7.0 14.0 0.00 0.00 0.00 79 1005.4
20260506011516 64 0 9.0 12.0 0.00 0.00 0.00 79 1005.2
20260506010536 64 0 9.0 13.0 0.00 0.00 0.00 78 1005.0
20260506005516 66 0 12.0 19.0 0.00 0.00 0.00 78 1004.9
20260506004516 67 0 7.0 12.0 0.00 0.00 0.00 78 1004.6
20260506003516 68 338 5.0 7.0 0.00 0.00 0.00 77 1004.3
20260506002516 68 338 5.0 10.0 0.00 0.00 0.00 76 1004.4
20260506001515 69 315 7.0 20.0 0.00 0.00 0.00 76 1004.4
20260506000516 69 315 10.0 14.0 0.00 0.00 0.00 76 1004.8
20260505235515 69 338 7.0 11.0 0.00 0.00 0.00 75 1003.8
20260505234516 70 315 11.0 15.0 0.00 0.00 0.00 74 1004.5
20260505233516 71 338 7.0 11.0 0.00 0.00 0.00 74 1004.3
20260505232516 72 338 7.0 13.0 0.00 0.00 0.00 74 1004.2
20260505231515 73 315 12.0 18.0 0.00 0.00 0.00 73 1004.2
20260505230516 75 315 10.0 14.0 0.00 0.00 0.00 72 1003.8
20260505225515 76 315 7.0 11.0 0.00 0.00 0.00 71 1003.8
20260505224516 77 315 13.0 16.0 0.00 0.00 0.00 69 1003.6
20260505223515 77 315 7.0 10.0 0.00 0.00 0.00 67 1003.4
20260505222516 78 315 8.0 11.0 0.00 0.00 0.00 64 1003.1
20260505221515 79 293 9.0 14.0 0.00 0.00 0.00 60 1002.9
20260505220515 79 293 10.0 12.0 0.00 0.00 0.00 57 1002.9
20260505215515 80 270 11.0 13.0 0.00 0.00 0.00 56 1002.7
20260505214516 80 293 9.0 13.0 0.00 0.00 0.00 55 1002.6
20260505213515 81 293 9.0 12.0 0.00 0.00 0.00 53 1002.9
20260505212515 82 293 7.0 10.0 0.00 0.00 0.00 52 1003.1
20260505211515 83 315 12.0 20.0 0.00 0.00 0.00 52 1002.9
20260505210515 85 293 11.0 15.0 0.00 0.00 0.00 54 1002.9
20260505205515 86 0 9.0 14.0 0.00 0.00 0.00 55 1003.0
20260505204515 86 0 9.0 13.0 0.00 0.00 0.00 55 1003.1
20260505203557 85 0 8.0 10.0 0.00 0.00 0.00 62 1002.9
20260505202537 85 0 9.0 12.0 0.00 0.00 0.00 62 1003.1
20260505201515 84 0 10.0 12.0 0.00 0.00 0.00 63 1003.0
20260505200517 83 0 7.0 9.0 0.00 0.00 0.00 64 1003.0
20260505195517 83 0 9.0 12.0 0.00 0.00 0.00 64 1003.2
20260505194537 83 0 8.0 14.0 0.00 0.00 0.00 65 1003.2
20260505193517 83 0 12.0 21.0 0.00 0.00 0.00 64 1003.4